TimeEDT,TemperatureF,Dew PointF,Humidity,Sea Level PressureIn,VisibilityMPH,Wind Direction,Wind SpeedMPH,Gust SpeedMPH,PrecipitationIn,Events,Conditions,WindDirDegrees,DateUTC
12:53 AM,78.1,73.0,84,29.88,10.0,Calm,Calm,-,N/A,,Clear,0,2013-06-27 04:53:00
1:53 AM,78.1,72.0,81,29.88,10.0,SSW,6.9,-,N/A,,Mostly Cloudy,210,2013-06-27 05:53:00
2:31 AM,69.8,64.4,83,29.95,2.0,SW,6.9,16.1,0.08,Rain,Rain,220,2013-06-27 06:31:00
2:40 AM,69.8,64.4,83,29.93,9.0,SSW,3.5,-,0.09,Rain,Light Rain,200,2013-06-27 06:40:00
2:53 AM,69.1,66.0,90,29.88,10.0,SSW,4.6,-,0.09,Rain,Light Rain,210,2013-06-27 06:53:00
3:53 AM,69.1,66.9,93,29.89,5.0,South,3.5,-,0.00,Rain,Rain,190,2013-06-27 07:53:00
4:53 AM,68.0,66.9,96,29.88,10.0,ENE,4.6,-,0.04,,Mostly Cloudy,70,2013-06-27 08:53:00
5:01 AM,68.0,66.2,94,29.91,10.0,East,3.5,-,N/A,,Overcast,100,2013-06-27 09:01:00
5:53 AM,69.1,66.9,93,29.87,10.0,Calm,Calm,-,N/A,,Mostly Cloudy,0,2013-06-27 09:53:00
6:09 AM,69.8,66.2,88,29.91,10.0,Calm,Calm,-,N/A,,Mostly Cloudy,0,2013-06-27 10:09:00
6:53 AM,69.1,66.9,93,29.86,10.0,Calm,Calm,-,N/A,,Scattered Clouds,0,2013-06-27 10:53:00
7:01 AM,69.8,66.2,88,29.91,10.0,Calm,Calm,-,N/A,,Scattered Clouds,0,2013-06-27 11:01:00
7:08 AM,68.0,68.0,100,29.91,10.0,Calm,Calm,-,N/A,,Mostly Cloudy,0,2013-06-27 11:08:00
7:39 AM,69.8,68.0,94,29.90,10.0,Calm,Calm,-,N/A,,Mostly Cloudy,0,2013-06-27 11:39:00
7:53 AM,70.0,68.0,93,29.86,10.0,Variable,3.5,-,N/A,,Mostly Cloudy,0,2013-06-27 11:53:00
8:53 AM,73.0,68.0,84,29.86,10.0,WSW,4.6,-,N/A,,Scattered Clouds,240,2013-06-27 12:53:00
9:53 AM,75.9,70.0,82,29.86,10.0,Calm,Calm,-,N/A,,Overcast,0,2013-06-27 13:53:00
10:37 AM,77.0,69.8,78,29.91,10.0,Variable,4.6,-,N/A,,Overcast,0,2013-06-27 14:37:00
10:44 AM,77.0,69.8,78,29.91,10.0,West,4.6,-,N/A,,Overcast,270,2013-06-27 14:44:00
10:53 AM,75.9,70.0,82,29.86,10.0,WSW,6.9,-,N/A,,Overcast,250,2013-06-27 14:53:00
11:53 AM,77.0,71.1,82,29.86,10.0,Variable,3.5,-,N/A,,Overcast,0,2013-06-27 15:53:00
12:53 PM,82.0,72.0,71,29.84,10.0,Variable,5.8,-,N/A,,Overcast,0,2013-06-27 16:53:00
1:53 PM,80.1,75.0,85,29.83,10.0,SW,3.5,-,0.02,,Mostly Cloudy,230,2013-06-27 17:53:00
2:53 PM,86.0,73.0,65,29.82,10.0,Variable,5.8,-,N/A,,Partly Cloudy,0,2013-06-27 18:53:00
3:53 PM,84.9,73.0,67,29.81,10.0,Variable,4.6,-,N/A,,Partly Cloudy,0,2013-06-27 19:53:00
4:53 PM,86.0,73.0,65,29.79,10.0,WSW,5.8,-,N/A,,Partly Cloudy,240,2013-06-27 20:53:00
5:44 PM,82.4,75.2,79,29.84,0.8,Calm,Calm,-,0.00,Rain,Heavy Rain,0,2013-06-27 21:44:00
5:53 PM,84.0,77.0,79,29.79,1.0,Calm,Calm,-,0.12,Rain,Light Rain,0,2013-06-27 21:53:00
5:55 PM,84.2,77.0,79,29.84,4.0,Variable,3.5,-,0.00,Rain,Light Rain,0,2013-06-27 21:55:00
6:53 PM,82.9,72.0,69,29.78,10.0,WSW,5.8,-,0.00,,Clear,250,2013-06-27 22:53:00
7:53 PM,82.0,72.0,71,29.77,10.0,SSW,6.9,-,N/A,,Clear,210,2013-06-27 23:53:00
8:53 PM,79.0,72.0,79,29.80,10.0,Variable,3.5,-,N/A,,Partly Cloudy,0,2013-06-28 00:53:00
9:33 PM,78.8,71.6,78,29.86,1.8,Calm,Calm,-,N/A,,Haze,0,2013-06-28 01:33:00
9:48 PM,78.8,71.6,78,29.87,0.8,Calm,Calm,-,N/A,,Haze,0,2013-06-28 01:48:00
9:53 PM,78.1,72.0,81,29.82,0.8,Calm,Calm,-,N/A,,Haze,0,2013-06-28 01:53:00
10:53 PM,75.9,72.0,87,29.83,0.8,Calm,Calm,-,N/A,,Clear,0,2013-06-28 02:53:00
11:53 PM,73.9,71.1,91,29.83,0.5,Calm,Calm,-,N/A,Fog,Fog,0,2013-06-28 03:53:00